Preview of NWS' New Version of Forecast
This preview is not operational and should not be used for support decisions.

Regional Weather Roundup (RWR)

Issued by Gray - Portland, ME (GYX)

                            
000
ASUS41 KGYX 242005
RWRGYX
WEATHER ROUNDUP FOR MAINE AND NEW HAMPSHIRE
NATIONAL WEATHER SERVICE GRAY ME
400 PM EDT FRI MAY 24 2019

MEZ002-005-006-010-012-015-018-020-021-024-026-027-029-242100-
MAINE
  
CITY           SKY/WX    TMP DP  RH WIND       PRES   REMARKS
PORTLAND       PTSUNNY   60  44  55 N20G32    29.91R                  
SANFORD        CLOUDY    62  45  53 N23G29    29.91R                  
BAR HARBOR     CLOUDY    53  47  79 NE12      29.89R                  
WISCASSET      CLOUDY    56  46  69 VRB7      29.92R                  
ROCKLAND       CLOUDY    53  47  79 NE12G22   29.89R                  
FRYEBURG       CLOUDY    61  44  53 N10       29.93R                  
LEWISTONAUBURN CLOUDY    58  46  64 N18       29.92R                  
AUGUSTA        CLOUDY    56  46  69 N14G23    29.93R                  
WATERVILLE     CLOUDY    57  46  66 N16G23    29.91R                  
BANGOR         CLOUDY    57  45  64 N15       29.91R                  
GREENVILLE       N/A     55  42  61 N9G21     29.93R                  
MILLINOCKET    PTSUNNY   60  44  55 NE13G21   29.93S                  
HOULTON        FAIR      61  38  42 NE16G22   29.90S                  
PRESQUE ISLE   FAIR      61  43  51 NW3       29.93S                  
FRENCHVILLE    PTSUNNY   64  38  38 N16       29.92R                  
CARIBOU        FAIR      63  40  42 N6        29.91F                  
$$

NHZ002-005-008-009-011-012-014-242100-
NEW HAMPSHIRE
  
CITY           SKY/WX    TMP DP  RH WIND       PRES   REMARKS
PORTSMOUTH     CLOUDY    63  46  52 N16G24    29.89R                  
ROCHESTER      CLOUDY    62  46  55 N9G18     29.91R                  
NASHUA         PTSUNNY   67  49  52 N16G26    29.91R                  
MANCHESTER     PTSUNNY   68  46  45 N26G32    29.91R                  
CONCORD        CLOUDY    64  46  52 N15G32    29.93R                  
LACONIA        CLOUDY    61  47  59 VRB6      29.94R                  
PLYMOUTH       CLOUDY    59  47  62 W12G20    29.96R                  
BERLIN         CLOUDY    59  44  57 N7        29.96R                  
WHITEFIELD     CLOUDY    57  45  64 NW12      29.98R                  
JAFFREY        CLOUDY    63  46  54 N8G20     29.94R                  
KEENE          CLOUDY    64  49  57 N15G23    29.94R                  
LEBANON        CLOUDY    62  47  57 N16G24    29.97R                  
MT WASHINGTON  FOG       32  32 100 N25G38      N/A  VSB 0   WCI  19  
$$

VTZ005-007-008-242100-
VERMONT
  
CITY           SKY/WX    TMP DP  RH WIND       PRES   REMARKS
ST JOHNSBURY     N/A     58  47  66 MISG      29.97R                  
MONTPELIER     CLOUDY    56  47  71 NW9       30.04R                  
BURLINGTON     CLOUDY    61  48  62 N13       30.03R                  
$$

MAZ007-012-024-CTZ003-RIZ002-NYZ038-NYZ072-242100-
SOUTHERN NEW ENGLAND AND NY
  
CITY           SKY/WX    TMP DP  RH WIND       PRES   REMARKS
BOSTON         PTSUNNY   64  47  53 NE16      29.89R                  
WORCESTER      FAIR      67  47  48 NW22G35   29.90R                  
NANTUCKET      CLOUDY    60  46  59 N29G38    29.84R                  
PROVIDENCE     PTSUNNY   72  47  40 N21G35    29.85R                  
HARTFORD       PTSUNNY   74  51  44 NW25G35   29.90R                  
ALBANY         PTSUNNY   67  53  61 W16       29.99R                  
NEW YORK CITY  PTSUNNY   73  50  44 NW17G28   29.93R                  
$$

ANZ081-ANZ082-ANZ150-NHZ014-MEZ023>029-242100-
COASTAL MARINE OBSERVATIONS
  
STATION/POSITION TIME  TEMP    WIND        PRES    WAVE
                       AIR SEA DIR/SP/G            HT/PER
                 (UTC) (F)     (DEG/KT/KT) (MB)    (FT/S)
ISLE OF SHOALS   1900   57      10/ 22/ 24 1010.7R
JEFFREYS LEDGE   1938      47                N/A     5/ 5
GEORGES BANK BUO 1950   48 44  300/ 17/ 23 1003.1R   6/ 7
$$

.............KEY..............
   WCI - WIND CHILL
   TC  - TEMPERATURE IN CELSIUS
   VSB - VISIBILITY IN MILES
   HX  - HEAT INDEX
   FAIR- INDICATES FEW OR NO CLOUDS BELOW 12,000 FT, WITH NO 
         SIGNIFICANT WEATHER AND/OR OBSTRUCTIONS TO VISIBILITY.